Orbital Elements at Epoch 2459200.5 (2020-Dec-17.0) TDB
Reference: JPL 19 (heliocentric ecliptic J2000)
Element | Value | Uncertainty (1-sigma) | Units |
e | .2125405691609044 | 4.75e-08 | |
a | 2.411620412413515 | 1.3558e-08 | au |
q | 1.899053237359091 | 1.1706e-07 | au |
i | 11.16276542716282 | 5.9393e-06 | deg |
node | 206.7085960885717 | 2.3453e-05 | deg |
peri | 44.42453692298007 | 2.6119e-05 | deg |
M | 344.7294021322178 | 1.2892e-05 | deg |
tp | 2459258.525032655258 (2021-Feb-13.02503266) | 4.9232e-05 | TDB |
period | 1367.923635784047 3.75 | 1.1535e-05 3.158e-08 | d yr |
n | .2631725855030354 | 2.2193e-09 | deg/d |
Q | 2.924187587467938 | 1.6439e-08 | au |
|
| | Orbit Determination Parameters
Additional Information
|